Regional Weather Roundup
Issued by NWS

Home | Current Version | Previous Version | Text Only | Print | Product List | Glossary On
Versions: 1 2 3 4 5 6 7 8 9 10 11 12 13 14 15 16 17 18 19 20 21 22 23 24 25 26 27 28 29 30 31 32 33 34 35 36 37 38 39 40 41 42 43 44 45 46 47 48 49 50
000
ASUS43 KTOP 031208
RWRKS

WEATHER ROUNDUP FOR KANSAS
NATIONAL WEATHER SERVICE GOODLAND KS
700 AM CDT FRI JUL 03 2015

NOTE:  "FAIR" INDICATES FEW OR NO CLOUDS BELOW 12,000 FEET WITH NO
SIGNIFICANT WEATHER AND/OR OBSTRUCTIONS TO VISIBILITY.

KSZ001>006-013>018-027>032-041>047-031300-
NORTHWEST KANSAS

CITY           SKY/WX    TMP DP  RH WIND       PRES   REMARKS
GOODLAND       PTCLDY    61  58  90 NW7       30.12R
6HR MIN TEMP:  57; 6HR MAX TEMP:  65;

HAYS           CLEAR     61  54  77 NW3       30.03R
HILL CITY      CLOUDY    64  61  90 NW5       30.05R FOG
6HR MIN TEMP:  60; 6HR MAX TEMP:  67;

RUSSELL        CLOUDY    65  63  93 N7        30.01R FOG
6HR MIN TEMP:  63; 6HR MAX TEMP:  68;

$$

KSZ061>065-074>080-084>089-031300-
SOUTHWEST KANSAS

CITY           SKY/WX    TMP DP  RH WIND       PRES   REMARKS
DODGE CITY     MOCLDY    67  63  87 NW5       30.03R FOG
6HR MIN TEMP:  64; 6HR MAX TEMP:  68;

ELKHART          N/A     64  58  81 W3          N/A
GARDEN CITY    CLEAR     66  63  90 E3        30.03S
6HR MIN TEMP:  64; 6HR MAX TEMP:  70;

GREAT BEND     CLEAR     66  61  82 N7        30.00S
LIBERAL        CLOUDY    66  63  88 N5        30.05S
PRATT          CLEAR     64  63  94 NW7       30.00R FOG
$$

KSZ066>073-081>083-090>101-031300-
SOUTHEAST KANSAS

CITY           SKY/WX    TMP DP  RH WIND       PRES   REMARKS
CHANUTE        FOG       70  69  97 CALM      29.91S VSB 3/4
6HR MIN TEMP:  68; 6HR MAX TEMP:  70;

COFFEYVILLE    CLEAR     68  68 100 CALM      29.90R
6HR MIN TEMP:  67; 6HR MAX TEMP:  70;

HUTCHINSON     CLEAR     68  64  87 N13       29.95R
6HR MIN TEMP:  66; 6HR MAX TEMP:  72;

MEDICINE LODGE   N/A     66  64  93 NW3       29.96R
NEWTON         CLEAR     64  61  88 NW8       29.96R
PARSONS        CLOUDY    70  70 100 CALM      29.92S
6HR MIN TEMP:  67; 6HR MAX TEMP:  72;

WICHITA INTL   PTCLDY    70  66  87 NW8       29.93R
6HR MIN TEMP:  66; 6HR MAX TEMP:  70;

WICHITA JABRA  CLEAR     68  66  93 NW10      29.93R
6HR MIN TEMP:  66; 6HR MAX TEMP:  71;

WICHITA MCCONL CLEAR     70  66  88 W5        29.93R
WINFIELD       CLEAR     67  66  97 CALM      29.94R FOG
6HR MIN TEMP:  63; 6HR MAX TEMP:  72;

$$

KSZ007>012-019>026-033>040-048>060-102>105-031300-
NORTHEAST KANSAS

CITY           SKY/WX    TMP DP  RH WIND       PRES   REMARKS
CONCORDIA      CLOUDY    67  66  97 NE10      29.98R
6HR MIN TEMP:  64; 6HR MAX TEMP:  68; 6HR PCP: TRACE;

EMPORIA        PTCLDY    65  65 100 CALM      29.92R FOG
6HR MIN TEMP:  64; 6HR MAX TEMP:  70; 6HR PCP: TRACE;

LAWRENCE       RAIN      65  63  93 E8        29.94R FOG
6HR MIN TEMP:  65; 6HR MAX TEMP:  69; 6HR PCP:  1.81;

MANHATTAN      CLOUDY    69  67  93 NE8       29.94R FOG
6HR MIN TEMP:  69; 6HR MAX TEMP:  71;

MARYSVILLE     CLOUDY    63  63 100 E7        29.97S
OLATHE IND     CLOUDY    65  63  93 NE7       29.94R
6HR MIN TEMP:  65; 6HR MAX TEMP:  69; 6HR PCP:  0.03;

OLATHE EXE     LGT RAIN  64  63  96 NE6       29.93R FOG
6HR MIN TEMP:  64; 6HR MAX TEMP:  68; 6HR PCP:  0.03;

SALINA         CLOUDY    69  65  86 NW10      29.96R
6HR MIN TEMP:  65; 6HR MAX TEMP:  70;

TOPEKA BILLARD LGT RAIN  67  66  97 NE7       29.94R FOG
6HR MIN TEMP:  66; 6HR MAX TEMP:  70; 6HR PCP:  0.22;

TOPEKA FORBES  HVY RAIN  68  65  90 N9        29.93R VSB 1
6HR MIN TEMP:  68; 6HR MAX TEMP:  71; 6HR PCP:  0.42;

$$


USA.gov is the U.S. government's official web portal to all federal, state and local government web resources and services.